Probability
0 0 0 0 0 0 0 0 0 0 0 0 0 0 0 0 0 0 0 0 0 0 0 0 0 0 0 0 0 0 0 0 0 0 0 0 0 0 0 0 0 0 0 0
0 0 0 0 0 0 0 0 0 0 0 0 0 0 0 0 0 0 0 0 0 0 0 0 0 0 0 0 0 0 0 0 0 0 0 0 0 0 0 0 0 0 0 0
0 0 0 0 0 0 0 0 0 0 0 0 0 0 0 0 0 0 0 0 0 0 0 0 0 0 0 0 0 0 0 0 0 0 0 0 0 0 0 0 0 0 0 0
0 0 0 0 0 0 0 0 0 0 0 0 0 0 0 0 0 0 0 0 0 0 0 0 0 0 0 0 0 0 0 0 0 0 0 0 0 0 0 0 0 0 0 0
0 0 0 0 0 0 0 0 0 0 0 0 0 0 0 0 0 0 0 0 0 0 0 0 0 0 0 0 0 0 0 0 0 0 0 0 0 0 0 0 0 0 0 0
0 0 0 0 0 0 0 0 0 0 0 0 0 0 0 0 0 0 0 0 0 0 0 0 0 0 0 0 0 0 0 0 0 0 0 0 0 0 0 0 0 0 0 0
0 0 0 0 0 0 0 0 0 0 0 0 0 0 0 0 0 0 0 0 0 0 0 0 0 0 0 0 0 0 0 0 0 0 0 0 0 0 0 0 0 0 0 0
0 0 0 0 0 0 0 0 0 0 0 0 0 0 0 0 0 0 0 0 0 0 0 0 0 0 0 0 0 0 0 0 0 0 0 0 0 0 0 0 0 0 0 0
0 0 0 0 0 0 0 0 0 0 0 0 0 0 0 0 0 0 0 0 0 0 0 0 0 0 0 0 0 0 0 0 0 0 0 0 0 0 0 0 0 0 0 0
0 0 0 0 0 0 0 0 0 0 0 0 0 0 0 0 0 0 0 0 0 0 0 0 0 0 0 0 0 0 0 0 0 0 0 0 0 0 0 0 0 0 0 0
0 0 0 0 0 0 0 0 0 0 0 0 0 0 0 0 0 0 0 0 0 0 0 0 0 0 0 0 0 0 0 0 0 0 0 0 0 0 0 0 0 0 0 0
0 0 0 0 0 0 0 0 0 0 0 0 0 0 0 0 0 0 0 0 0 0 0 0 0 0 0 0 0 0 0 0 0 0 0 0 0 0 0 0 0 0 0 0
0 0 0 0 0 0 0 0 0 0 0 0 0 0 0 0 0 0 0 0 0 0 0 0 0 0 0 0 0 0 0 0 0 0 0 0 0 0 0 0 0 0 0 0
0 0 0 0 0 0 0 0 0 0 0 0 0 0 0 0 0 0 0 0 0 0 0 0 0 0 0 0 0 0 0 0 0 0 0 0 0 0 0 0 0 0 0 0
0 0 0 0 0 0 0 0 0 0 0 0 0 0 0 0 0 0 0 0 0 0 0 0 0 0 0 0 0 0 0 0 0 0 0 0 0 0 0 0 0 0 0 0
0 0 0 0 0 0 0 0 0 0 0 0 0 0 0 0 0 0 0 0 0 0 0 0 0 0 0 0 0 0 0 0 0 0 0 0 0 0 0 0 0 0 0 0
0 0 0 0 0 0 0 0 0 0 0 0 0 0 0 0 0 0 0 0 0 0 0 0 0 0 0 0 0 0 0 0 0 0 0 0 0 0 0 0 0 0 0 0
0 0 0 0 0 0 0 0 0 0 0 0 0 0 0 0 0 0 0 0 0 0 0 0 0 0 0 0 0 0 0 0 0 0 0 0 0 0 0 0 0 0 0 0
0 0 0 0 0 0 0 0 0 0 0 0 0 0 0 0 0 0 0 0 0 0 0 0 0 0 0 0 0 0 0 0 0 0 0 0 0 0 0 0 0 0 0 0
0 0 0 0 0 0 0 0 0 0 0 0 0 0 0 0 0 0 0 0 0 0 0 0 0 0 0 0 0 0 0 0 0 0 0 0 0 0 0 0 0 0 0 0
0 0 0 0 0 0 0 0 0 0 0 0 0 0 0 0 0 0 0 0 0 0 0 0 0 0 0 0 0 0 0 0 0 0 0 0 0 0 0 0 0 0 0 0
0 0 0 0 0 0 0 0 0 0 0 0 0 0 0 0 0 0 0 0 0 0 0 0 0 0 0 0 0 0 0 0 0 0 0 0 0 0 0 0 0 0 0 0
0 0 0 0 0 0 0 0 0 0 0 0 0 0 0 0 0 0 0 0 0 0 0 0 0 0 0 0 0 0 0 0 0 0 0 0 0 0 0 0 0 0 0 0
0 0 0 0 0 0 0 0 0 0 0 0 0 0 0 0 0 0 0 0 0 0 0 0 0 0 0 0 0 0 0 0 0 0 0 0 0 0 0 0 0 0 0 0
0 0 0 0 0 0 0 0 0 0 0 0 0 0 0 0 0 0 0 0 0 0 0 0 0 0 0 0 0 0 0 0 0 0 0 0 0 0 0 0 0 0 0 0
0 0 0 0 0 0 0 0 0 0 0 0 0 0 0 0 0 0 0 0 0 0 0 0 0 0 0 0 0 0 0 0 0 0 0 0 0 0 0 0 0 0 0 0
0 0 0 0 0 0 0 0 0 0 0 0 0 0 0 0 0 0 0 0 0 0 0 0 0 0 0 0 0 0 0 0 0 0 0 0 0 0 0 0 0 0 0 0
Wind_Speed
11 11 10 11 11 10 13 12 10 10 11 11 8 6 5 4 4 4 4 3 3 3 3 3 3 3 3 4 4 4 4 4 5 4 4 3 3 3 3 3 3 3 2 2
9 10 10 14 15 14 14 15 17 16 18 10 6 4 4 5 4 4 4 4 3 3 3 4 4 4 4 4 4 4 4 5 5 4 4 4 4 4 4 4 3 3 3 3
6 5 7 12 12 13 10 9 9 13 12 6 5 5 4 5 5 5 5 4 4 4 4 4 4 4 4 4 4 4 5 5 5 5 5 5 4 4 4 4 4 4 4 3
5 5 9 7 1 3 6 9 10 9 7 5 5 5 5 4 3 4 4 4 4 4 4 4 4 4 4 4 4 4 5 5 5 5 5 5 4 5 5 4 4 4 4 4
3 6 10 6 3 3 3 6 6 7 6 4 3 4 4 2 1 3 4 4 4 4 4 4 4 4 4 4 4 5 5 5 5 5 5 5 5 6 5 4 4 4 4 4
5 6 8 3 3 3 1 5 2 2 2 2 2 3 4 2 2 4 4 4 4 4 4 4 5 3 4 5 5 6 6 5 5 5 5 6 6 5 4 4 4 4 4 4
9 8 10 4 4 4 2 3 0 0 2 2 3 5 4 5 4 4 5 5 5 5 5 5 4 3 5 5 6 6 5 5 5 5 5 5 5 4 4 4 4 4 5 4
7 9 11 3 5 5 4 2 2 2 3 3 5 5 6 6 6 6 6 5 5 5 5 5 4 4 6 7 6 4 4 5 5 5 5 4 4 4 4 4 4 5 4 4
9 10 5 4 5 4 2 3 4 4 4 5 6 7 7 6 6 6 6 6 5 5 6 5 4 5 7 7 5 4 4 5 5 4 4 4 5 5 4 4 4 4 4 4
8 8 7 6 6 4 4 4 5 5 6 5 7 7 7 7 6 6 6 6 5 5 6 6 5 5 6 5 4 4 5 5 4 5 5 4 4 5 5 5 5 5 5 5
10 9 9 8 5 5 5 5 6 6 6 6 7 8 8 7 7 6 6 5 5 5 6 7 6 6 5 5 4 5 5 5 4 5 5 5 5 5 6 6 6 6 5 5
11 7 7 6 5 6 6 7 7 7 7 6 7 8 8 7 6 6 6 5 6 6 7 7 6 7 6 5 5 5 5 5 4 4 4 4 4 3 6 7 8 9 7 6
12 9 8 8 7 7 7 7 7 7 7 8 7 7 7 7 6 6 6 6 7 7 7 7 7 7 6 5 5 6 6 5 4 4 4 4 4 4 4 4 6 8 8 8
7 6 8 7 7 6 7 7 6 7 7 7 6 6 6 7 6 7 7 7 7 7 7 7 7 8 6 5 5 6 6 6 5 4 4 5 5 5 4 4 4 3 6 10
6 5 6 6 6 6 5 5 6 7 7 6 5 6 6 7 7 7 7 6 6 7 7 7 7 8 5 5 5 6 5 4 4 4 4 4 4 4 4 5 4 3 2 4
5 5 6 6 6 6 6 6 7 7 6 6 6 6 6 7 7 7 7 6 6 7 7 7 8 7 5 5 5 5 5 7 6 4 4 4 4 4 4 5 5 4 4 4
5 6 6 6 6 7 6 6 6 6 6 7 7 7 6 7 7 7 7 6 6 8 7 7 8 6 5 5 5 4 4 5 7 5 4 4 5 5 5 5 5 5 5 5
4 5 5 5 5 6 6 6 6 6 7 7 7 6 7 7 8 8 8 7 7 8 7 7 6 5 5 5 4 4 4 4 4 5 4 4 5 5 4 5 5 5 4 4
4 4 5 5 5 5 6 7 7 7 7 6 7 7 8 8 8 8 7 6 7 9 8 6 7 6 5 6 5 4 4 4 4 4 4 6 5 4 4 5 5 5 4 4
4 5 5 6 6 6 7 7 7 7 7 6 7 7 8 8 7 7 7 8 8 7 7 6 5 5 5 5 6 3 4 5 5 4 4 4 4 5 5 5 5 5 4 4
6 6 7 7 7 7 7 7 7 8 8 7 7 8 9 9 7 6 6 9 8 6 6 7 5 4 4 5 6 4 4 5 5 5 5 5 5 5 5 5 5 5 4 4
6 7 8 8 8 8 8 7 7 8 8 8 8 8 8 8 8 7 8 8 8 7 5 4 4 6 7 6 4 4 4 5 5 4 5 5 5 5 5 5 4 4 4 4
7 7 8 8 8 8 9 8 8 8 9 9 8 8 8 8 6 6 8 6 5 7 5 4 7 9 10 5 4 4 5 5 5 5 5 5 5 5 4 5 4 4 4 4
8 8 8 8 7 8 10 10 8 7 8 9 8 8 8 7 7 6 6 8 8 8 5 7 10 10 8 4 4 4 4 4 4 4 4 4 4 4 4 4 4 4 4 4
9 8 8 8 8 8 9 9 8 8 8 7 8 8 7 6 7 6 5 6 8 8 5 7 9 9 5 3 4 4 4 4 4 4 4 3 3 3 3 4 4 4 4 4
9 8 8 8 8 7 6 6 6 6 6 7 7 6 5 5 5 6 5 5 6 7 5 4 4 5 4 4 4 4 4 4 4 3 3 3 4 4 3 3 4 4 4 3
8 8 7 7 7 7 6 6 7 7 6 6 7 6 5 5 4 5 5 5 4 4 4 4 4 4 3 3 3 3 3 3 3 3 3 3 3 3 3 4 3 3 3 3
Wind_Direction
268 277 274 264 255 236 227 225 237 253 261 273 291 298 299 291 284 284 286 280 264 256 255 251 245 240 234 232 229 227 226 228 230 229 225 221 225 230 233 235 237 236 239 243
273 259 259 263 254 244 241 238 245 260 270 273 279 293 301 302 299 292 291 287 282 277 274 266 256 250 241 234 228 222 228 231 228 226 223 220 223 225 228 232 236 233 232 234
273 285 293 266 243 227 223 222 227 245 254 278 290 292 296 297 293 292 296 296 288 280 272 268 263 254 245 238 231 225 232 233 227 223 224 224 220 219 224 227 230 232 231 227
281 300 253 248 149 192 227 242 232 244 265 281 287 294 287 280 280 297 309 304 292 282 277 269 266 263 252 238 230 230 233 234 229 223 224 222 218 223 227 224 223 226 228 224
258 268 276 262 204 184 215 262 235 237 254 275 309 314 290 276 303 297 293 292 284 275 274 270 265 255 249 245 235 232 234 234 229 223 223 221 221 224 226 224 225 224 222 220
241 252 255 265 129 99 94 270 230 205 243 276 318 294 273 321 328 304 298 292 288 283 278 273 266 249 246 248 241 239 237 236 230 223 223 223 223 224 224 222 226 225 229 223
236 251 263 263 143 126 198 249 51 254 265 260 241 246 283 311 305 295 289 287 283 278 273 268 267 254 252 252 248 246 243 237 229 223 224 222 219 219 220 218 219 224 230 230
208 229 251 183 143 198 238 313 319 298 283 274 270 283 293 295 292 293 289 282 277 274 270 266 257 248 255 255 254 251 240 235 230 226 225 217 214 218 213 209 216 225 228 233
207 225 248 183 213 235 262 284 287 289 286 279 279 281 286 286 285 284 282 279 272 268 271 268 256 243 254 259 252 244 237 234 231 227 225 217 212 214 212 209 215 224 224 230
260 260 265 258 255 260 263 269 280 284 280 275 275 279 282 281 281 282 280 278 274 272 272 273 264 254 252 257 246 235 237 237 228 223 227 221 216 211 211 213 217 220 223 227
260 268 279 273 270 280 286 283 285 281 274 272 274 277 275 274 273 273 275 273 268 265 267 270 269 264 258 252 242 239 240 237 232 225 224 221 218 216 215 218 214 215 219 215
255 259 267 279 291 294 287 280 278 279 279 272 266 271 273 271 268 268 271 272 272 268 267 270 271 268 262 248 237 237 242 235 228 226 223 220 220 232 228 224 227 226 225 218
262 273 277 285 289 287 285 287 285 278 274 276 271 267 270 271 270 267 268 268 268 267 268 270 270 270 264 250 240 236 239 236 229 223 220 218 215 214 232 242 234 235 232 228
271 280 280 280 284 288 287 285 284 280 274 270 271 272 272 275 274 269 267 265 266 268 269 269 269 269 265 251 243 242 241 237 229 223 218 217 217 216 211 212 224 238 234 230
267 262 268 285 290 291 288 284 283 281 279 278 275 273 272 273 273 272 271 270 271 270 269 268 270 272 269 250 244 244 242 237 227 221 217 216 215 215 214 215 218 220 213 219
284 281 277 277 279 284 284 280 276 277 278 279 279 275 271 270 272 273 271 264 263 268 269 270 271 273 270 256 250 246 241 236 230 223 217 213 211 213 216 216 216 215 214 209
279 278 277 278 278 280 279 277 274 275 278 280 279 280 280 279 279 277 274 265 260 263 264 264 268 270 263 252 246 245 240 236 227 226 219 215 214 215 215 214 216 219 219 205
263 269 273 276 281 285 286 284 278 274 273 274 279 278 275 273 273 276 278 280 280 277 270 260 260 261 256 250 245 243 236 231 222 222 223 220 220 215 213 215 218 221 221 209
286 282 282 282 281 280 279 280 278 273 271 271 271 270 269 269 269 272 275 275 275 277 276 262 256 257 255 249 244 239 234 231 229 226 221 226 227 216 211 213 217 217 212 204
287 284 281 280 279 275 275 277 280 279 273 268 268 271 272 271 271 271 271 268 262 260 267 267 261 256 252 246 239 234 229 228 228 227 222 220 220 221 218 215 215 214 210 206
280 281 280 279 280 279 275 274 275 277 279 272 266 267 270 273 272 268 268 275 274 260 260 261 258 255 249 243 238 233 228 228 227 225 223 223 221 223 221 216 213 210 207 205
271 273 274 275 276 278 277 274 271 273 276 273 267 266 269 274 274 268 257 257 268 264 263 259 257 253 252 250 240 234 233 232 230 226 224 222 220 221 220 214 211 208 204 201
268 268 270 272 272 274 277 274 269 269 269 267 264 262 262 263 262 265 274 266 258 259 261 257 258 258 260 256 242 238 235 234 232 229 226 224 220 216 213 210 208 202 198 197
268 269 269 271 273 276 278 276 270 267 266 266 262 257 256 264 267 254 253 267 267 264 263 260 262 262 261 250 236 235 235 234 234 232 228 221 215 211 207 204 202 198 195 194
266 269 269 269 268 266 267 270 271 269 267 266 266 261 253 246 253 265 263 261 262 264 264 259 259 261 255 238 231 233 233 233 230 222 217 212 209 208 206 199 195 193 193 194
262 264 264 258 257 261 263 264 265 266 265 269 270 265 258 251 251 257 260 261 259 261 262 260 255 254 245 234 232 232 228 228 233 228 216 211 207 203 200 197 193 193 193 192
261 261 262 264 262 256 254 255 259 263 260 260 269 269 261 258 256 254 255 255 256 254 253 251 247 243 238 232 228 227 222 217 216 217 211 207 201 198 195 193 192 187 185 185